• Join FlightAware (Why Join?)
  • Login
  • US Flag 
12:31PM EST


 

Airport Tracker/Info


-or-


 

Live Flight TrackerFlight Track Log ✈ UCA4797 ✈ 04-May-2012 ✈ KCLE - KGRR

Flight Track Log - Related Links

Times and Time Zones

All times are in EDT time to prevent confusion due to time zone crossing. See the UCA4797 flight status page for this flight to view local times or setup timezone preferences in your user account.

Time Position Orientation Groundspeed Altitude Reporting Facility
EDT Latitude Longitude Course Direction KTS MPH feet Rate Location/Type
08:54PM 41.4236 -81.8403 317° Northwest 132 152 1,700  Level Cleveland Center
08:55PM 41.4442 -81.8656 309° West 165 190 2,200 1,185 Climbing Cleveland Center
08:55PM 41.4667 -81.9022 288° West 170 196 3,300 1,543 Climbing Cleveland Center
08:56PM 41.4806 -81.9578 253° West 175 201 4,900 850 Climbing Cleveland Center
08:57PM 41.4631 -82.0322 252° West 172 198 5,000 50 Climbing Cleveland Center
08:58PM 41.4431 -82.1150 254° West 219 252 5,000 400 Level Cleveland Center
08:59PM 41.4253 -82.2003 245° Southwest 242 278 5,800 850 Climbing Cleveland Center
09:00PM 41.3969 -82.2800 242° Southwest 242 278 6,700 1,050 Climbing Cleveland Center
09:01PM 41.3689 -82.3511 245° Southwest 232 267 7,900 1,100 Climbing Cleveland Center
09:02PM 41.3428 -82.4250 243° Southwest 225 259 8,900 550 Climbing Cleveland Center
09:03PM 41.3167 -82.4936 256° West 225 259 9,000 350 Climbing Cleveland Center
09:04PM 41.3003 -82.5842 265° West 242 278 9,600 1,150 Climbing Cleveland Center
09:05PM 41.2947 -82.6614 309° West 234 269 11,300 1,350 Climbing Cleveland Center
09:06PM 41.3314 -82.7208 309° West 190 219 12,300 1,000 Climbing Cleveland Center
09:07PM 41.3678 -82.7800 307° West 207 238 13,300 1,000 Climbing Cleveland Center
09:08PM 41.4039 -82.8450 307° West 217 250 14,300 1,000 Climbing Cleveland Center
09:09PM 41.4422 -82.9128 308° West 217 250 15,300 950 Climbing Cleveland Center
09:10PM 41.4825 -82.9806 308° West 224 258 16,200 900 Climbing Cleveland Center
09:11PM 41.5186 -83.0431 308° West 224 258 17,100 900 Climbing Cleveland Center
09:12PM 41.5569 -83.1083 305° West 224 258 18,000 850 Climbing Cleveland Center
09:13PM 41.5908 -83.1736 309° West 224 258 18,800 750 Climbing Cleveland Center
09:14PM 41.6250 -83.2306 308° West 224 258 19,500 600 Climbing Cleveland Center
09:15PM 41.6631 -83.2958 307° West 224 258 20,000 250 Climbing Cleveland Center
09:16PM 41.7031 -83.3672 306° West 237 273 20,000  Level Cleveland Center
09:17PM 41.7469 -83.4469 307° West 251 289 20,000  Level Cleveland Center
09:18PM 41.7947 -83.5328 308° West 262 302 20,000  Level Cleveland Center
09:19PM 41.8408 -83.6131 306° West 262 302 20,000  Level Cleveland Center
09:20PM 41.8844 -83.6931 306° West 267 307 20,000  Level Cleveland Center
09:21PM 41.9281 -83.7733 308° West 267 307 20,000  Level Cleveland Center
09:22PM 41.9739 -83.8511 306° West 267 307 20,000  Level Cleveland Center
09:23PM 42.0175 -83.9317 306° West 267 307 20,000  Level Cleveland Center
09:24PM 42.0628 -84.0153 310° West 267 307 20,000 -171 Level Cleveland Center
09:25PM 42.0986 -84.0731 304° West 265 305 19,700 -743 Descending Cleveland Center
09:26PM 42.1439 -84.1622 307° West 281 323 18,700 -1,041 Descending Cleveland Center
09:27PM 42.1914 -84.2464 307° West 286 329 17,600 -1,082 Descending Cleveland Center
09:28PM 42.2367 -84.3275 307° West 269 310 16,500 -1,091 Descending Cleveland Center
09:29PM 42.2819 -84.4089 305° West 263 303 15,400 -1,101 Descending Cleveland Center
09:30PM 42.3153 -84.4725 307° West 259 298 14,500 -1,101 Descending Cleveland Center
09:31PM 42.3583 -84.5511 307° West 268 308 13,400 -1,134 Descending Cleveland Center
09:32PM 42.4114 -84.6472 305° West 277 319 12,100 -1,125 Descending Cleveland Center
09:33PM 42.4561 -84.7347 308° West 276 318 11,000 -1,041 Descending Cleveland Center
09:34PM 42.4992 -84.8108 307° West 266 306 10,000 -574 Descending Cleveland Center
09:35PM 42.5383 -84.8811 306° West 254 292 9,900 -517 Descending Cleveland Center
09:36PM 42.5811 -84.9600 305° West 254 292 9,000 -522 Descending Cleveland Center
09:37PM 42.6161 -85.0275 306° West 257 296 8,900 -52 Descending Cleveland Center
09:38PM 42.6569 -85.1039 305° West 252 290 8,900  Level Cleveland Center
09:47PM 42.8667 -85.5167 342° North  Level FlightAware Approximate
09:48PM 42.9271 -85.5429 162° South  Level Estimated
09:49PM 42.8667 -85.5167 162° South  Level FlightAware Approximate